Silver City, NM

8:01 AM MST on December 18, 2017 (GMT -0700)
Grant County

Weather History for KSVC - November, 2012

Change the Weather History Date:

Thursday, November 15, 2012

  Actual Average (KDMN) Record (KDMN)
Temperature  
Mean Temperature 48 °F -  
Max Temperature 64 °F 64 °F 79 °F (2017)
Min Temperature 32 °F 33 °F 20 °F (1985)
Degree Days  
Heating Degree Days 17    
Moisture  
Dew Point 12 °F    
Average Humidity 24    
Maximum Humidity 41    
Minimum Humidity 12    
Precipitation  
Precipitation 0.00 in - - ()
Sea Level Pressure  
Sea Level Pressure 30.27 in    
Wind  
Wind Speed 8 mph (North)    
Max Wind Speed 12 mph    
Max Gust Speed -    
Visibility 10 miles    
Events      
Averages and records for this station are not official NWS values.
T = Trace of Precipitation, MM = Missing Value Source: NWS Daily Summary

Daily Weather History Graph

Daily Weather History Graph

Search for Another Location

Airport or City:

Trip Planner

Search our weather history database for the weather conditions in past years. The results will help you decide how hot, cold, wet, or windy it might be!

Date:

Astronomy

Nov. 15, 2012 Rise Set
Actual Time 6:43 AM MST 5:11 PM MST
Civil Twilight 6:16 AM MST 5:37 PM MST
Nautical Twilight 5:47 AM MST 6:07 PM MST
Astronomical Twilight 5:17 AM MST 6:36 PM MST
Moon 8:38 AM MST (11/15) 7:09 PM MST (11/15)
Length of Visible Light 11h 20m
Length of Day
10h 28m
Waxing Crescent, 5% of the Moon is Illuminated
Nov 15
Waxing Crescent
Nov 20
First Quarter
Nov 28
Full
Dec 6
Last Quarter
Dec 13
New

Hourly Weather History & Observations

Time (MST) Temp. Windchill Dew Point Humidity Pressure Visibility Wind Dir Wind Speed Gust Speed Precip Events Conditions
12:15 AM 37.4 °F 29.8 °F 10.4 °F 33% 30.25 in 10.0 mi North 11.5 mph - N/A   Clear
12:35 AM 37.4 °F 30.3 °F 10.4 °F 33% 30.24 in 10.0 mi North 10.4 mph - N/A   Clear
12:55 AM 37.4 °F 30.3 °F 10.4 °F 33% 30.24 in 10.0 mi North 10.4 mph - N/A   Clear
1:15 AM 37.4 °F 29.8 °F 10.4 °F 33% 30.24 in 10.0 mi North 11.5 mph - N/A   Clear
1:35 AM 35.6 °F 28.0 °F 10.4 °F 35% 30.24 in 10.0 mi North 10.4 mph - N/A   Clear
1:55 AM 35.6 °F 27.5 °F 10.4 °F 35% 30.24 in 10.0 mi North 11.5 mph - N/A   Clear
2:15 AM 37.4 °F 29.8 °F 10.4 °F 33% 30.23 in 10.0 mi North 11.5 mph - N/A   Clear
2:35 AM 35.6 °F 27.5 °F 10.4 °F 35% 30.24 in 10.0 mi North 11.5 mph - N/A   Clear
2:55 AM 35.6 °F 27.5 °F 10.4 °F 35% 30.23 in 10.0 mi North 11.5 mph - N/A   Clear
3:15 AM 35.6 °F 28.0 °F 10.4 °F 35% 30.23 in 10.0 mi North 10.4 mph - N/A   Clear
3:35 AM 35.6 °F 27.5 °F 10.4 °F 35% 30.23 in 10.0 mi North 11.5 mph - N/A   Clear
3:55 AM 35.6 °F 28.0 °F 10.4 °F 35% 30.22 in 10.0 mi North 10.4 mph - N/A   Clear
4:15 AM 32.0 °F 24.2 °F 10.4 °F 41% 30.22 in 10.0 mi NNW 9.2 mph - N/A   Clear
4:35 AM 32.0 °F 23.6 °F 10.4 °F 41% 30.22 in 10.0 mi North 10.4 mph - N/A   Clear
4:55 AM 32.0 °F 24.2 °F 10.4 °F 41% 30.22 in 10.0 mi North 9.2 mph - N/A   Clear
5:15 AM 35.6 °F 28.0 °F 12.2 °F 38% 30.23 in 10.0 mi North 10.4 mph - N/A   Clear
5:35 AM 35.6 °F 28.6 °F 12.2 °F 38% 30.23 in 10.0 mi North 9.2 mph - N/A   Clear
5:55 AM 32.0 °F 24.2 °F 10.4 °F 41% 30.24 in 10.0 mi NNW 9.2 mph - N/A   Clear
6:15 AM 32.0 °F 24.2 °F 10.4 °F 41% 30.25 in 10.0 mi NNW 9.2 mph - N/A   Clear
6:35 AM 32.0 °F 24.2 °F 10.4 °F 41% 30.26 in 10.0 mi NNW 9.2 mph - N/A   Clear
6:55 AM 33.8 °F 25.8 °F 8.6 °F 35% 30.26 in 10.0 mi North 10.4 mph - N/A   Clear
7:15 AM 35.6 °F 28.6 °F 10.4 °F 35% 30.27 in 10.0 mi NNW 9.2 mph - N/A   Clear
7:35 AM 39.2 °F 33.0 °F 10.4 °F 31% 30.27 in 10.0 mi NNW 9.2 mph - N/A   Clear
7:55 AM 46.4 °F 43.5 °F 10.4 °F 23% 30.27 in 10.0 mi NNW 5.8 mph - N/A   Clear
8:15 AM 50.0 °F - 10.4 °F 20% 30.28 in 10.0 mi NNW 5.8 mph - N/A   Clear
8:35 AM 53.6 °F - 10.4 °F 18% 30.28 in 10.0 mi Calm Calm - N/A   Clear
8:55 AM 55.4 °F - 14.0 °F 20% 30.28 in 10.0 mi Calm Calm - N/A   Clear
9:15 AM 57.2 °F - 14.0 °F 18% 30.29 in 10.0 mi SE 3.5 mph - N/A   Clear
9:35 AM 59.0 °F - 15.8 °F 19% 30.31 in 10.0 mi Calm Calm - N/A   Clear
9:55 AM 59.0 °F - 15.8 °F 19% 30.31 in 9.0 mi South 4.6 mph - N/A   Clear
10:15 AM 60.8 °F - 12.2 °F 15% 30.30 in 10.0 mi SSE 5.8 mph - N/A   Clear
10:35 AM 60.8 °F - 12.2 °F 15% 30.29 in 10.0 mi SSE 6.9 mph - N/A   Clear
10:55 AM 62.6 °F - 14.0 °F 15% 30.28 in 10.0 mi SSE 4.6 mph - N/A   Clear
11:15 AM 62.6 °F - 14.0 °F 15% 30.28 in 10.0 mi SSE 5.8 mph - N/A   Clear
11:35 AM 64.4 °F - 14.0 °F 14% 30.28 in 10.0 mi South 8.1 mph - N/A   Clear
11:55 AM 64.4 °F - 14.0 °F 14% 30.27 in 10.0 mi South 8.1 mph - N/A   Clear
12:15 PM 64.4 °F - 12.2 °F 13% 30.26 in 10.0 mi SE 8.1 mph - N/A   Clear
12:35 PM 64.4 °F - 10.4 °F 12% 30.26 in 10.0 mi South 8.1 mph - N/A   Clear
12:55 PM 64.4 °F - 10.4 °F 12% 30.26 in 10.0 mi South 6.9 mph - N/A   Clear
1:15 PM 64.4 °F - 14.0 °F 14% 30.27 in 10.0 mi South 11.5 mph - N/A   Clear
1:35 PM 64.4 °F - 14.0 °F 14% 30.26 in 10.0 mi South 10.4 mph - N/A   Clear
1:55 PM 62.6 °F - 14.0 °F 15% 30.26 in 10.0 mi SSE 10.4 mph - N/A   Clear
2:15 PM 62.6 °F - 14.0 °F 15% 30.27 in 10.0 mi SSW 8.1 mph - N/A   Clear
2:35 PM 62.6 °F - 14.0 °F 15% 30.26 in 10.0 mi South 6.9 mph - N/A   Clear
2:55 PM 62.6 °F - 14.0 °F 15% 30.26 in 10.0 mi SSE 8.1 mph - N/A   Clear
3:15 PM 62.6 °F - 14.0 °F 15% 30.26 in 10.0 mi SSE 4.6 mph - N/A   Clear
3:55 PM 62.6 °F - 10.4 °F 13% 30.26 in 10.0 mi SSE 5.8 mph - N/A   Clear
4:15 PM 62.6 °F - 10.4 °F 13% 30.26 in 10.0 mi SSE 5.8 mph - N/A   Clear
4:55 PM 59.0 °F - 8.6 °F 14% 30.26 in 10.0 mi SSE 3.5 mph - N/A   Clear
5:15 PM 59.0 °F - 8.6 °F 14% 30.27 in 10.0 mi SE 3.5 mph - N/A   Clear
5:35 PM 57.2 °F - 8.6 °F 14% 30.27 in 10.0 mi SE 4.6 mph - N/A   Clear
5:55 PM 57.2 °F - 8.6 °F 14% 30.28 in 10.0 mi SE 3.5 mph - N/A   Partly Cloudy
6:35 PM 55.4 °F - 8.6 °F 15% 30.29 in 10.0 mi ESE 3.5 mph - N/A   Overcast
6:55 PM 53.6 °F - 12.2 °F 19% 30.29 in 10.0 mi Calm Calm - N/A   Mostly Cloudy
7:15 PM 53.6 °F - 12.2 °F 19% 30.29 in 10.0 mi Calm Calm - N/A   Scattered Clouds
7:35 PM 50.0 °F - 10.4 °F 20% 30.29 in 10.0 mi Calm Calm - N/A   Scattered Clouds
7:55 PM 50.0 °F - 10.4 °F 20% 30.29 in 10.0 mi NNW 6.9 mph - N/A   Partly Cloudy
8:15 PM 50.0 °F - 12.2 °F 22% 30.29 in 10.0 mi North 6.9 mph - N/A   Scattered Clouds
8:35 PM 50.0 °F - 14.0 °F 24% 30.30 in 10.0 mi NNW 8.1 mph - N/A   Scattered Clouds
8:55 PM 53.6 °F - 14.0 °F 21% 30.30 in 10.0 mi North 4.6 mph - N/A   Clear
9:15 PM 53.6 °F - 14.0 °F 21% 30.30 in 10.0 mi West 4.6 mph - N/A   Clear
9:35 PM 51.8 °F - 14.0 °F 22% 30.31 in 10.0 mi West 3.5 mph - N/A   Clear
9:55 PM 50.0 °F - 14.0 °F 24% 30.30 in 10.0 mi Calm Calm - N/A   Clear
10:15 PM 53.6 °F - 14.0 °F 21% 30.30 in 10.0 mi North 6.9 mph - N/A   Clear
10:35 PM 48.2 °F - 14.0 °F 25% 30.31 in 10.0 mi NNW 6.9 mph - N/A   Clear
10:55 PM 48.2 °F - 12.2 °F 24% 30.31 in 10.0 mi North 5.8 mph - N/A   Clear
11:15 PM 48.2 °F - 12.2 °F 24% 30.30 in 10.0 mi NNE 9.2 mph - N/A   Clear
11:35 PM 50.0 °F - 14.0 °F 24% 30.30 in 10.0 mi NNE 6.9 mph - N/A   Clear
11:55 PM 48.2 °F - 14.0 °F 25% 30.30 in 10.0 mi North 8.1 mph - N/A   Clear